Location: Krakow
(50.0830°N, 19.9170°E)
Time: 16:44:38
(UTC+01:00)

Transit 2A Rocket - Pass Details

Date: 14 December 2023
Orbit: 590 x 905 km, 66.7° (Epoch: 03 March)

Event Time Altitude Azimuth Distance (km) Brightness Sun altitude
Rises 17:52:42 0° 183° (S) 2,998 8.3 -20.4°
Reaches altitude 10° 17:55:20 10° 171° (S) 2,042 7.2 -20.8°
Enters shadow 17:57:28 21° 149° (SSE) 1,423 6.2 -21.1°
